Location: Mohawk View
(42.7837°N, 73.7885°W)
Time: 01:35:58
(UTC+00:00)

Cosmos 2322 - Pass Details

Date: 17 June 2021
Orbit: 839 x 856 km, 71.0° (Epoch: 02 August)

Event Time Altitude Azimuth Distance (km) Brightness Sun altitude
Exits shadow 03:08:43 21° 203° (SSW) 1,781 5.0 -19.4°
Maximum altitude 03:12:33 90° 139° (SE) 845 3.6 -19.7°
Drops below altitude 10° 03:18:13 10° 25° (NNE) 2,465 6.7 -20.1°
Sets 03:20:40 0° 25° (NNE) 3,406 7.5 -20.3°
